Regional Weather Roundup
Issued by NWS

Home | Current Version | Previous Version | Text Only | Print | Product List | Glossary On
Versions: 1 2 3 4 5 6 7 8 9 10 11 12 13 14 15 16 17 18 19 20 21 22 23 24 25 26 27 28 29 30 31 32 33 34 35 36 37 38 39 40 41 42 43 44 45 46 47 48 49 50
000
ASUS43 KDTX 241501
RWRMI
MICHIGAN HOURLY REGIONAL WEATHER ROUNDUP
NATIONAL WEATHER SERVICE DETROIT/PONTIAC MI
1100 AM EDT FRI OCT 24 2014

NOTE: "FAIR" INDICATES FEW OR NO CLOUDS BELOW 12,000 FEET WITH NO
SIGNIFICANT WEATHER AND/OR OBSTRUCTION TO VISIBILITY.

MIZ047>049-052>055-059>063-066>070-074>076-081>083-241600-
SOUTHEAST LOWER MICHIGAN

CITY           SKY/WX    TMP DP  RH WIND       PRES   REMARKS
ADRIAN         MOSUNNY   49  42  77 W7        30.10R
ALMA           CLOUDY    50  44  81 SW5       30.06S
ANN ARBOR      SUNNY     52  41  66 W6        30.08S
BAD AXE        SUNNY     48  48 100 SW3       30.05S
CARO           CLOUDY    46  42  87 SW5       30.06R
DETROIT CITY   SUNNY     55  42  61 SW7       30.08F
DETROIT        MOSUNNY   52  42  69 S5        30.08F
FLINT          CLOUDY    49  42  77 S5        30.07F
GROSSE ILE     SUNNY     52  45  76 CALM      30.07F
HILLSDALE      CLOUDY    51  46  83 CALM      30.08S
HOWELL         CLOUDY    47  43  85 S5        30.06F

CITY           SKY/WX    TMP DP  RH WIND       PRES   REMARKS
JACKSON        CLOUDY    50  43  77 CALM      30.07S
LAMBERTVILLE   MOSUNNY   54  43  66 CALM      30.09S
LANSING        CLOUDY    50  43  77 SW5       30.07S
LAPEER         CLOUDY    47  43  87 CALM      30.06F
MASON          CLOUDY    49  43  79 SW3       30.06F
MONROE         SUNNY     52  43  71 CALM      30.07S
MT. CLEMENS    PTSUNNY   55  43  64 SW5       30.05F
PONTIAC        PTSUNNY   47  41  80 W5        30.07R
PORT HOPE        N/A     52  41  66 SW5       30.02S
PORT HURON     MOSUNNY   48  48 100 S3        30.07F
TRI CITIES     CLOUDY    48  42  80 SW6       30.07R
TROY           CLOUDY    53  40  62 SW3       30.08F
SAGINAW HB     CLOUDY    46  43  87 SW7       30.06R
$$
MIZ043>046-050>051-056>058-064>065-071>073-077>080-241600-
SOUTHWEST LOWER MICHIGAN

CITY           SKY/WX    TMP DP  RH WIND       PRES   REMARKS
BATTLE CREEK   CLOUDY    52  44  74 SW5       30.08R
BENTON HARBOR  CLOUDY    54  48  80 SW7       30.07R
BIG RAPIDS     CLOUDY    52  52 100 CALM      30.03S
COLDWATER      CLOUDY    53  46  78 SW3       30.08S
FREMONT        CLOUDY    52  51  95 SW5       30.03F FOG
HOLLAND        CLOUDY    58  50  75 W8        30.06S
GRAND RAPIDS   CLOUDY    55  47  74 SW6       30.06R
IONIA          CLOUDY    53  46  77 SW5       30.05S
KALAMAZOO      CLOUDY    53  44  71 S5        30.07S
LUDINGTON      CLOUDY    52  50  92 W3        30.04S FOG
MARSHALL       CLOUDY    51  44  77 SW3       30.07S
MOUNT PLEASANT CLOUDY    52  45  77 CALM      30.04S
MUSKEGON       CLOUDY    55  49  80 W6        30.05S
SOUTH HAVEN    PTSUNNY   57  50  79 SW5       30.06S
$$
MIZ016>042-241600-
NORTHERN LOWER MICHIGAN

CITY           SKY/WX    TMP DP  RH WIND       PRES   REMARKS
ALPENA         CLOUDY    48  42  80 CALM      30.02F
BEAVER ISLAND  CLOUDY    52  50  95 W5        30.00S FOG
BELLAIRE       CLOUDY    51  47  86 S5        30.02S
CADILLAC       CLOUDY    48  47  97 CALM      30.02S FOG
CHARLEVOIX     CLOUDY    53  50  92 SW3       30.04S FOG
FRANKFORT      CLOUDY    52  49  88 SW3       30.01F FOG
GAYLORD        CLOUDY    48  45  89 SW6       30.01F
GRAYLING       CLOUDY    49  47  92 CALM      30.03S
HARBOR SPRINGS CLOUDY    51  45  82 CALM      30.01S
HOUGHTON LAKE  CLOUDY    49  44  83 CALM      30.03F
OSCODA         PTSUNNY   50  41  73 SW6       30.03S
PELLSTON       CLOUDY    49  44  83 S5        30.01S
ROGERS CITY    CLOUDY    48  45  87 S6        30.02F
TRAVERSE CITY  CLOUDY    52  48  86 SW7       30.01S FOG
$$
MIZ007>008-015-241600-
EASTERN UPPER MICHIGAN

CITY           SKY/WX    TMP DP  RH WIND       PRES   REMARKS
KINROSS        CLOUDY    46  46 100 S5        29.99S
MACKINAC ISLAN CLOUDY    48  47  94 S7        30.00S FOG
NEWBERRY       CLOUDY    46  46  98 SW6       29.98S FOG
S. S. MARIE    CLOUDY    45  43  93 CALM      29.99S FOG
MUNISING         N/A     48  45  89 SW5       29.96F
$$
MIZ004>006-011>014-085-241600-
CENTRAL UPPER MICHIGAN

CITY           SKY/WX    TMP DP  RH WIND       PRES   REMARKS
MANISTIQUE     CLOUDY    48  47  98 SW5       29.98S
ESCANABA       CLOUDY    45  43  93 W6        29.99R
MENOMINEE      CLOUDY    46  45  93 W8        30.00S
SAWYER-GWINN   FOG       43  41  93 S10       29.96F VSB 1/4
$$
MIZ001>003-009>011-084-241600-
WESTERN UPPER MICHIGAN

CITY           SKY/WX    TMP DP  RH WIND       PRES   REMARKS
IRON MOUNTAIN  FOG       44  43  96 S3        29.98S VSB 3/4
HOUGHTON       FOG       45  43  93 SE7       29.90F VSB<1/4
COPPER HARBOR    N/A     47  45  93 SW14G28   29.88F
IRONWOOD       PTSUNNY   50  46  87 S9        29.88F
$$

ABBREVIATIONS USED IN REMARKS
   TC - TEMPERATURE IN CELSIUS
  WCI - WIND CHILL INDEX
   HX - HEAT INDEX
  VSB - VISIBILITY




USA.gov is the U.S. government's official web portal to all federal, state and local government web resources and services.